Find Local Weather

World > North America > United States > Florida

Port Saint Lucie, Florida Regional Weather

Lat: 27.28N, Lon: 80.35W
Wx Zone: FLZ059
Feedback
Expires:201804220400;;311457
ASUS42 KTBW 220316
RWRFL 
FLORIDA REGIONAL WEATHER ROUNDUP
NATIONAL WEATHER SERVICE TAMPA BAY RUSKIN FL
1100 PM EDT SAT APR 21 2018

NOTE: "FAIR" INDICATES FEW OR NO CLOUDS BELOW 12,000 FEET WITH NO
SIGNIFICANT WEATHER AND/OR OBSTRUCTIONS TO VISIBILITY.


FLZ041-047-054-059-064-141-147-220400-
EAST CENTRAL FLORIDA
  
CITY           SKY/WX    TMP DP  RH WIND       PRES   REMARKS
DAYTONA BEACH  FAIR      72  65  78 E9G18     30.20S                  
DELAND         CLOUDY    70  64  83 E12       30.19S                  
JFK SPACE CTR  MOCLDY    73  65  75 E13G22    30.18S                  
CAPE CANAVERAL FAIR      73  66  77 E15G23    30.17S                  
PATRICK AFB    FAIR      75  69  80 E17G28    30.17R                  
MELBOURNE      CLOUDY    75  69  81 E21G29    30.17R                  
VERO BEACH     CLOUDY    75  68  78 E18G26    30.16R                  
FT PIERCE      CLOUDY    74  70  87 E13       30.15R                  

STATION/POSITION SKY/WX   TEMP    WIND        PRES    WAVE   SWELL
                          AIR SEA DIR/SP/G            HT/PER HT/PER
                          (F)     (DEG/KT/KT) (MB)    (FT/S) (FT/S)
28.5N   80.2W              74 72   80/ 19/ 25 1022.0R   8/ 8   5/ 8
28.9N   78.5W              72 76   80/ 19/ 23 1023.7S   7/ 7   2/14
TRIDENT PIER               73 76   70/ 15/ 19 1023.4R
28.4N   80.5W                 75                N/A     5/ 8
27.5N   80.2W                 75                N/A     7/ 8   2/11

$$

SKY/WX - Weather  TMP - Temperature  DP - Dewpoint  RH - Relative Humidity
WIND - Wind Direction/Speed PRES - Barometric Pressure